Wind_Speed
12 12 12 12 12 11 10 9 8 8 8 7 7 7 6 6 6 6 6 6 6 6 6 6 7 7 7 7 5 3 2 1 1 1 0 1 2 2 2 2 2 3 2 3 4 4 5 6 7
12 11 11 12 13 10 9 9 8 8 8 8 8 8 7 6 6 5 5 6 5 6 6 6 7 7 7 6 5 4 3 2 3 2 3 3 2 2 2 2 2 2 3 3 3 4 5 7 7
11 10 12 15 12 9 9 9 9 9 9 8 8 8 8 6 6 6 6 5 5 6 6 7 7 6 6 6 5 4 4 4 3 3 3 4 3 2 2 1 2 2 2 3 3 4 5 6 6
10 11 14 13 10 9 9 9 9 9 9 9 8 8 8 7 7 6 6 5 6 6 6 7 7 6 6 6 5 4 5 5 4 4 3 3 3 2 1 1 1 3 3 3 4 4 5 5 5
10 13 14 10 8 8 8 9 9 9 9 9 9 8 8 8 8 8 7 6 6 6 6 7 6 6 6 6 5 4 5 4 5 5 4 4 3 2 1 1 1 2 2 4 5 4 4 5 5
11 13 10 8 7 8 8 9 9 9 10 9 9 9 9 8 8 8 8 8 7 7 6 6 6 6 6 6 6 5 5 5 4 4 4 4 4 2 1 0 1 2 3 3 4 3 4 5 6
12 12 9 7 8 9 9 9 9 10 10 10 10 10 9 9 9 9 9 9 9 8 6 6 6 6 6 6 6 5 4 5 5 4 5 5 6 4 2 1 2 2 3 4 5 5 5 5 6
11 10 7 6 7 8 9 9 9 9 10 10 10 10 9 9 9 9 9 9 10 9 8 7 6 6 6 5 5 4 4 4 5 5 5 6 7 6 5 4 3 4 3 4 5 5 4 4 5
10 7 4 5 7 8 8 9 9 9 10 10 10 9 9 9 10 10 10 10 10 10 9 8 7 6 5 5 5 5 4 4 4 5 5 6 7 7 6 5 4 4 5 5 5 4 4 4 4
6 4 3 5 6 7 8 9 9 9 10 10 9 9 9 9 10 10 10 10 10 10 10 9 8 8 7 5 5 5 4 5 4 5 5 5 6 7 7 6 5 5 5 5 5 4 4 4 3
3 3 4 5 6 7 8 8 9 9 10 10 10 9 9 9 9 10 10 10 10 10 10 10 9 8 8 7 6 5 5 5 5 4 4 4 5 6 6 5 5 5 5 5 4 4 4 4 4
2 3 4 4 5 6 7 8 9 9 9 9 9 9 10 10 10 10 10 10 10 10 10 10 10 9 9 8 7 6 5 5 5 4 4 5 5 5 6 4 4 4 4 4 3 3 4 4 4
2 3 3 5 5 5 5 7 9 9 9 9 9 9 10 10 10 10 10 9 9 9 9 10 10 10 9 8 7 6 5 5 6 5 4 5 5 5 5 4 4 3 3 3 3 2 3 3 2
1 1 2 4 6 7 7 6 8 9 9 9 9 9 9 10 10 10 10 9 9 9 9 10 10 10 9 9 8 7 6 6 6 6 6 6 6 5 6 5 4 3 3 2 2 2 2 2 2
2 2 3 4 6 7 7 6 8 10 10 9 9 9 10 10 10 10 10 10 9 9 9 9 9 9 9 9 8 7 7 6 6 7 7 6 7 6 5 5 5 5 4 4 4 3 3 3 2
1 2 3 2 5 8 8 8 7 9 9 10 9 9 10 11 10 10 9 9 9 9 9 8 8 9 9 9 8 8 7 7 7 7 7 6 6 6 5 6 6 6 5 4 4 3 4 4 3
1 1 4 3 4 7 9 9 6 8 10 10 9 9 9 10 10 10 9 9 9 9 9 9 9 9 9 9 8 8 8 7 7 7 7 7 6 6 5 5 5 5 5 5 4 4 3 3 3
3 2 3 4 6 7 8 10 7 7 9 10 10 10 9 10 10 10 10 9 9 9 9 9 9 9 9 9 8 8 8 8 8 8 8 7 6 6 5 5 5 5 5 5 5 4 3 3 3
5 4 4 5 6 7 8 9 9 8 9 9 10 11 10 10 11 10 10 9 9 8 9 9 9 9 9 9 9 9 10 9 8 9 9 8 8 7 6 5 6 6 5 5 5 5 5 4 4
7 6 7 7 7 7 9 9 9 9 10 10 9 10 10 10 10 10 10 9 9 9 9 9 9 10 10 8 8 9 9 9 9 9 9 9 9 9 8 7 7 6 6 6 6 6 6 5 5
9 8 7 8 8 8 10 11 10 10 11 10 10 11 11 11 10 10 10 10 9 9 9 9 9 10 9 9 9 9 8 9 9 9 9 9 9 9 8 8 7 7 7 7 7 7 7 7 7
8 9 8 8 7 8 10 12 11 10 10 10 11 11 12 12 11 10 10 11 10 10 9 10 10 10 9 9 9 9 9 9 9 10 10 10 10 10 10 9 9 8 8 8 9 9 9 9 9
9 9 9 8 8 9 10 11 12 11 10 9 11 12 12 12 12 11 11 11 11 10 10 11 10 10 10 10 10 10 10 10 10 10 10 10 11 11 11 11 11 10 9 10 11 11 11 11 11
10 9 8 8 9 11 10 11 13 11 12 11 12 13 13 13 12 12 11 12 12 11 11 11 11 11 11 11 11 12 12 12 12 11 11 12 12 12 12 12 12 11 11 12 12 13 13 13 14
10 8 10 10 10 10 8 10 12 11 12 12 13 14 13 13 13 13 13 12 12 12 12 11 11 11 11 11 12 13 13 14 13 13 13 13 14 14 14 14 13 13 13 13 14 14 14 15 15
11 11 12 11 9 9 9 11 11 11 13 13 14 14 13 13 14 14 14 13 12 12 12 12 12 12 12 12 12 13 13 14 14 14 14 15 15 16 16 15 15 15 15 15 15 16 16 16 16
12 12 11 11 9 11 11 13 14 14 14 15 15 15 15 15 16 15 14 14 13 12 13 13 13 13 14 14 14 14 14 14 14 14 15 16 17 17 17 16 16 16 16 15 16 16 17 17 17
12 12 11 12 12 12 12 14 14 15 14 16 17 18 17 17 16 16 15 15 15 14 15 15 15 15 15 15 16 16 16 16 15 15 16 17 17 18 17 17 17 17 16 16 16 16 16 17 17
13 11 12 13 13 12 13 14 15 16 17 18 18 19 18 18 17 16 16 16 16 16 16 16 17 17 17 17 17 17 17 17 17 17 17 18 18 18 18 18 18 19 18 17 17 17 18 18 19
16 14 14 15 15 14 15 17 18 19 20 19 20 19 19 20 19 18 18 18 18 18 18 18 18 18 18 18 18 18 18 18 18 18 18 19 20 20 20 20 20 20 20 19 19 19 19 20 20
Wind_Direction
86 83 79 73 61 49 40 34 28 22 16 15 10 8 5 4 3 5 8 9 7 7 8 20 14 16 10 9 19 22 32 98 110 85 65 126 144 154 150 174 183 185 194 204 207 209 198 196 200
82 78 74 66 57 40 30 26 23 20 18 13 8 8 7 8 2 1 6 6 6 12 15 23 19 18 14 18 35 45 59 90 93 86 100 100 113 132 145 170 182 193 200 198 193 184 184 183 191
82 74 63 58 48 32 24 24 21 16 14 12 7 7 9 6 5 359 1 4 14 17 21 26 29 29 24 29 41 51 60 71 86 90 88 91 97 109 123 164 197 195 196 189 163 155 166 173 180
88 75 63 52 38 25 21 19 18 15 13 11 9 12 15 17 7 3 9 16 20 20 25 30 35 39 35 34 37 47 53 61 80 85 83 78 67 77 90 139 200 191 188 186 167 159 161 169 177
89 72 60 39 28 25 14 16 16 15 13 12 13 17 17 18 16 11 14 20 20 25 30 36 38 39 39 37 40 46 52 60 73 72 74 59 35 23 22 112 165 174 163 181 174 168 167 167 169
79 72 59 31 16 25 13 16 16 16 16 14 16 17 19 21 17 18 24 24 25 28 32 35 40 36 37 39 45 51 50 59 65 58 50 38 19 360 348 342 165 158 158 170 171 171 180 177 178
82 67 59 31 9 14 11 15 17 12 15 17 19 21 21 22 19 24 28 29 28 27 29 38 44 40 35 41 46 51 55 52 51 47 44 37 29 29 46 81 88 125 149 161 155 154 157 160 164
81 72 54 29 9 9 8 10 15 14 14 17 19 21 20 24 24 26 28 29 29 29 34 37 41 33 26 34 40 50 52 49 51 48 47 41 43 46 59 79 61 66 109 130 144 155 153 142 150
75 71 56 25 10 11 5 7 12 11 14 17 20 24 19 25 28 31 30 29 31 33 34 37 37 29 25 31 42 44 47 50 49 46 47 47 49 50 55 65 54 58 90 121 118 121 128 140 143
77 76 44 27 14 10 6 9 11 13 17 20 22 24 25 28 29 28 29 30 33 35 33 35 35 31 32 37 42 44 44 42 46 44 46 45 46 47 47 56 57 69 90 104 109 119 118 120 131
57 41 39 21 7 10 10 11 12 11 15 22 24 23 23 25 27 26 30 30 32 34 31 31 36 37 39 41 38 42 41 40 40 41 36 37 37 38 39 41 49 62 77 85 99 104 103 104 100
49 30 32 3 1 9 11 9 11 11 16 20 20 19 22 22 21 23 27 27 27 29 29 27 30 33 34 35 34 34 32 32 28 25 25 24 19 22 26 30 40 61 85 85 93 96 86 88 89
38 8 4 353 358 357 352 5 5 10 12 14 12 12 14 19 23 20 20 24 23 25 25 23 24 28 33 32 28 24 21 23 22 13 5 9 8 13 19 16 13 41 67 69 75 68 78 68 60
176 291 341 357 345 342 343 1 359 5 4 6 5 6 10 16 17 16 15 15 15 17 18 19 20 22 25 22 19 19 15 13 17 17 13 11 9 14 14 18 21 30 24 24 41 47 43 53 30
264 320 7 357 339 330 336 345 355 357 353 357 1 4 11 13 12 11 12 13 11 12 12 9 12 14 15 14 14 14 14 16 16 13 13 14 16 15 18 16 17 21 18 17 18 24 20 26 19
232 333 353 337 321 317 322 325 347 346 349 352 358 2 9 11 12 12 14 15 11 8 7 5 4 6 7 11 11 11 11 8 7 6 5 6 11 13 16 23 23 26 21 24 21 32 34 35 29
216 308 316 323 310 303 313 317 331 338 346 345 348 357 5 7 10 9 11 14 11 6 4 2 1 360 359 360 2 4 5 2 2 1 0 359 0 0 13 27 26 28 20 16 21 25 23 20 22
300 293 298 316 302 294 300 308 322 330 334 336 338 345 355 358 2 4 4 5 3 2 1 1 358 355 355 354 353 356 0 1 1 359 356 356 354 351 352 1 9 12 12 17 19 16 10 7 2
265 262 266 274 282 284 294 302 311 315 320 325 330 332 337 345 349 354 355 355 353 354 354 356 353 351 351 352 351 353 353 353 357 358 358 357 352 348 350 353 357 359 1 6 5 3 6 356 343
257 272 272 269 271 273 275 280 297 305 308 317 323 319 323 331 335 341 344 344 343 344 345 345 347 350 348 348 346 348 350 352 350 349 350 350 350 348 347 348 348 350 350 351 348 347 345 339 330
248 252 253 271 272 275 283 287 291 301 303 314 316 317 320 324 331 334 335 337 336 337 336 336 337 338 338 339 342 345 350 349 348 346 346 347 348 346 341 335 334 334 335 335 333 332 328 325 324
246 252 256 269 273 276 288 293 299 299 310 316 315 315 315 320 322 326 328 330 330 331 328 327 330 330 329 333 334 336 338 340 341 340 340 341 340 338 333 330 323 317 318 320 318 318 316 312 309
252 252 256 262 264 275 288 295 295 295 303 314 314 312 311 312 319 315 316 319 322 324 323 323 322 322 322 323 325 325 325 326 328 330 332 332 332 332 329 325 317 309 308 310 311 309 306 305 302
246 253 264 262 262 266 283 287 283 296 299 306 311 311 309 311 313 313 311 312 313 317 319 317 316 315 315 316 316 318 318 316 319 321 323 323 322 322 323 323 317 312 312 310 308 306 303 301 300
244 255 266 271 270 277 280 281 278 286 292 301 304 306 309 312 312 311 312 311 309 310 313 316 314 313 314 313 313 312 312 312 310 312 313 315 316 315 314 313 311 309 308 307 305 304 302 301 300
234 244 260 273 283 290 284 277 284 279 285 293 299 304 306 306 307 306 306 306 308 309 310 312 312 311 310 309 309 309 309 309 308 307 307 308 310 310 308 306 306 304 305 306 306 303 302 300 300
235 244 254 265 270 275 275 280 279 274 280 290 294 297 300 302 301 302 302 300 303 306 308 308 308 306 304 302 304 306 307 308 308 306 304 306 308 308 305 303 301 298 300 302 303 303 300 298 298
238 237 245 253 259 265 273 276 277 275 285 293 296 295 295 299 301 302 301 301 300 303 303 303 304 305 304 303 302 302 303 304 303 303 303 306 309 308 305 302 301 300 300 301 304 305 304 300 299
252 249 244 251 253 265 267 272 279 282 282 285 293 296 296 297 299 296 296 297 299 299 299 300 301 302 303 302 301 302 301 300 300 302 302 303 307 307 305 303 302 303 302 300 300 301 301 300 299
244 247 250 254 257 261 266 272 274 278 283 287 292 292 292 294 296 297 295 295 296 296 297 298 299 300 300 301 301 301 301 300 299 299 299 301 303 302 302 300 300 302 299 298 299 300 301 300 299
Height
5893 5893 5893 5894 5893 5892 5891 5891 5890 5889 5888 5887 5885 5884 5883 5882 5882 5882 5878 5875 5874 5873 5871 5870 5869 5867 5865 5863 5861 5860 5861 5862 5864 5864 5864 5863 5863 5864 5864 5865 5865 5866 5866 5866 5866 5865 5865 5867 5869
5895 5896 5895 5894 5894 5894 5894 5893 5892 5891 5890 5888 5886 5885 5883 5882 5881 5880 5878 5876 5875 5874 5872 5871 5870 5868 5866 5864 5862 5862 5862 5863 5865 5865 5864 5864 5864 5865 5865 5865 5865 5865 5865 5865 5865 5864 5864 5866 5869
5897 5897 5896 5895 5897 5897 5896 5895 5893 5892 5890 5889 5888 5886 5885 5883 5882 5880 5879 5878 5876 5875 5873 5872 5871 5870 5868 5866 5865 5865 5865 5865 5866 5866 5866 5866 5865 5865 5865 5865 5865 5865 5865 5865 5865 5864 5865 5866 5869
5899 5899 5898 5900 5899 5899 5897 5896 5895 5894 5892 5890 5889 5887 5885 5884 5882 5881 5879 5878 5877 5876 5875 5873 5872 5871 5870 5869 5868 5868 5868 5868 5867 5867 5867 5867 5866 5866 5865 5865 5865 5865 5865 5865 5865 5865 5866 5868 5870
5900 5899 5901 5902 5901 5900 5899 5898 5897 5895 5893 5892 5890 5888 5886 5885 5883 5882 5881 5879 5877 5877 5875 5874 5874 5873 5872 5871 5870 5870 5870 5869 5869 5869 5868 5868 5867 5866 5865 5865 5865 5864 5864 5865 5866 5867 5868 5869 5871
5900 5902 5904 5904 5903 5902 5901 5900 5899 5897 5895 5893 5891 5889 5888 5887 5885 5883 5882 5879 5878 5877 5876 5875 5875 5874 5874 5873 5872 5871 5871 5871 5871 5871 5870 5868 5866 5863 5863 5864 5864 5863 5863 5865 5866 5867 5868 5869 5870
5903 5904 5906 5906 5905 5904 5903 5901 5900 5898 5897 5895 5893 5891 5889 5888 5886 5885 5883 5881 5879 5878 5878 5877 5877 5876 5876 5875 5874 5873 5873 5873 5873 5872 5871 5869 5865 5862 5861 5863 5863 5863 5863 5864 5866 5868 5868 5869 5870
5906 5908 5908 5908 5907 5906 5905 5903 5902 5900 5898 5897 5895 5893 5891 5890 5888 5886 5884 5882 5881 5880 5879 5878 5878 5878 5877 5877 5876 5875 5875 5875 5874 5874 5872 5870 5867 5864 5863 5864 5864 5863 5862 5863 5866 5868 5869 5870 5871
5908 5911 5910 5910 5908 5908 5906 5905 5903 5901 5900 5898 5896 5895 5893 5891 5890 5888 5886 5884 5883 5882 5881 5880 5879 5879 5879 5878 5878 5877 5877 5877 5876 5875 5874 5873 5871 5869 5867 5866 5865 5863 5862 5864 5867 5869 5871 5871 5871
5911 5912 5911 5910 5910 5909 5907 5906 5904 5903 5902 5900 5898 5896 5895 5893 5891 5890 5888 5886 5885 5884 5883 5882 5881 5881 5880 5880 5880 5879 5879 5878 5878 5877 5876 5875 5874 5872 5871 5869 5868 5865 5865 5867 5869 5871 5872 5872 5871
5913 5913 5912 5912 5911 5910 5909 5907 5906 5904 5903 5901 5900 5898 5896 5895 5893 5891 5890 5888 5887 5886 5885 5884 5883 5882 5882 5881 5881 5881 5881 5880 5879 5878 5878 5877 5876 5875 5873 5873 5872 5870 5870 5871 5872 5873 5873 5873 5873
5914 5913 5913 5912 5911 5911 5910 5908 5907 5906 5905 5903 5901 5900 5898 5897 5895 5894 5892 5890 5889 5888 5887 5886 5885 5884 5883 5883 5883 5882 5882 5881 5881 5880 5879 5878 5877 5876 5875 5875 5874 5874 5873 5874 5874 5874 5874 5874 5874
5915 5914 5914 5913 5912 5912 5910 5910 5908 5907 5906 5904 5903 5901 5900 5899 5897 5896 5894 5893 5891 5890 5889 5888 5887 5886 5885 5885 5885 5884 5884 5883 5882 5882 5881 5880 5879 5878 5877 5876 5876 5875 5875 5875 5875 5875 5875 5875 5876
5916 5915 5914 5914 5914 5913 5911 5911 5910 5908 5907 5906 5904 5903 5902 5900 5898 5897 5896 5894 5893 5892 5891 5890 5889 5888 5887 5887 5886 5886 5885 5884 5883 5883 5882 5881 5880 5879 5878 5877 5877 5877 5877 5876 5876 5876 5876 5876 5877
5914 5915 5915 5915 5915 5914 5913 5911 5910 5909 5908 5907 5906 5904 5903 5901 5900 5898 5897 5896 5894 5893 5892 5891 5890 5889 5889 5888 5887 5887 5886 5885 5884 5884 5883 5882 5881 5880 5880 5879 5878 5878 5878 5877 5877 5877 5877 5877 5877
5914 5915 5916 5916 5916 5915 5915 5913 5911 5910 5909 5908 5907 5905 5904 5903 5901 5900 5898 5897 5896 5895 5894 5893 5892 5891 5890 5889 5888 5887 5887 5886 5885 5885 5884 5883 5882 5881 5881 5880 5880 5879 5879 5878 5878 5878 5878 5878 5878
5914 5915 5916 5916 5916 5916 5915 5913 5911 5911 5909 5909 5907 5906 5905 5904 5902 5901 5899 5898 5897 5896 5895 5894 5893 5892 5891 5890 5889 5888 5887 5887 5886 5885 5885 5884 5883 5882 5882 5881 5881 5880 5879 5879 5879 5879 5879 5879 5879
5915 5916 5916 5917 5917 5916 5914 5913 5912 5911 5910 5909 5908 5907 5906 5905 5903 5902 5901 5899 5898 5897 5896 5895 5894 5893 5892 5891 5890 5889 5888 5887 5886 5886 5885 5884 5884 5883 5883 5882 5881 5881 5880 5880 5880 5879 5879 5879 5879
5914 5915 5916 5916 5917 5915 5914 5913 5912 5911 5911 5910 5909 5907 5906 5905 5904 5902 5901 5900 5899 5898 5897 5895 5894 5893 5892 5891 5890 5889 5888 5887 5887 5886 5885 5884 5884 5883 5883 5882 5882 5881 5880 5880 5880 5879 5879 5879 5879
5914 5915 5915 5915 5915 5915 5913 5912 5911 5910 5910 5909 5908 5907 5905 5905 5904 5902 5902 5900 5899 5898 5897 5896 5894 5893 5892 5891 5890 5889 5889 5888 5887 5886 5885 5884 5884 5883 5882 5882 5882 5881 5880 5880 5879 5879 5879 5878 5878
5913 5914 5915 5914 5914 5913 5912 5911 5910 5910 5909 5908 5907 5907 5905 5904 5904 5902 5901 5900 5899 5898 5897 5895 5894 5893 5892 5891 5890 5889 5888 5888 5887 5886 5885 5884 5883 5882 5882 5881 5881 5880 5880 5879 5879 5878 5878 5877 5877
5911 5912 5913 5913 5913 5912 5913 5911 5909 5908 5908 5908 5907 5906 5905 5904 5903 5902 5900 5900 5899 5898 5896 5895 5894 5893 5892 5891 5890 5889 5888 5887 5887 5886 5885 5883 5882 5882 5881 5880 5879 5879 5878 5878 5877 5877 5876 5876 5875
5909 5910 5910 5911 5911 5911 5911 5911 5909 5906 5906 5906 5906 5905 5904 5903 5902 5901 5900 5899 5898 5897 5896 5894 5893 5892 5891 5890 5889 5888 5887 5886 5886 5885 5884 5883 5882 5881 5880 5879 5878 5877 5876 5876 5875 5875 5874 5873 5873
5907 5908 5909 5909 5910 5910 5910 5910 5907 5905 5904 5905 5905 5904 5903 5901 5901 5899 5899 5898 5897 5896 5895 5894 5893 5891 5890 5890 5888 5887 5886 5885 5884 5883 5883 5882 5881 5879 5878 5877 5876 5875 5874 5874 5873 5872 5871 5871 5870
5906 5907 5908 5908 5908 5908 5908 5907 5906 5904 5904 5903 5903 5902 5901 5900 5899 5898 5897 5896 5895 5894 5893 5892 5891 5890 5889 5888 5887 5886 5884 5883 5882 5882 5881 5880 5879 5878 5877 5875 5874 5873 5872 5871 5870 5869 5868 5867 5866
5903 5906 5907 5907 5907 5907 5906 5905 5905 5903 5902 5902 5902 5901 5900 5899 5898 5897 5896 5894 5894 5893 5891 5890 5889 5888 5887 5886 5885 5884 5882 5881 5880 5879 5878 5877 5876 5875 5873 5872 5871 5870 5869 5868 5867 5866 5865 5864 5863
5901 5903 5905 5905 5906 5906 5905 5904 5901 5900 5901 5900 5900 5899 5898 5897 5896 5895 5894 5892 5891 5891 5890 5888 5887 5886 5885 5884 5883 5881 5880 5879 5878 5877 5876 5874 5873 5871 5870 5869 5867 5866 5865 5864 5863 5862 5861 5860 5859
5898 5900 5902 5902 5903 5903 5903 5901 5899 5897 5897 5898 5898 5897 5896 5894 5893 5892 5891 5890 5889 5888 5887 5886 5885 5884 5882 5881 5879 5878 5877 5876 5875 5874 5872 5871 5869 5868 5866 5865 5864 5862 5861 5860 5859 5858 5857 5856 5855
5896 5897 5898 5899 5900 5901 5900 5900 5897 5896 5895 5895 5894 5893 5892 5891 5890 5889 5888 5887 5886 5886 5884 5883 5882 5881 5879 5878 5876 5875 5874 5873 5872 5870 5869 5868 5866 5864 5863 5861 5860 5859 5857 5856 5855 5854 5853 5852 5851
5893 5895 5896 5897 5897 5897 5897 5898 5895 5894 5893 5891 5890 5890 5889 5888 5887 5886 5885 5884 5883 5882 5881 5880 5878 5877 5876 5874 5873 5872 5870 5869 5868 5866 5865 5864 5862 5860 5859 5857 5856 5854 5853 5852 5851 5850 5849 5847 5846